When you browse on this site, cookies collect data to enhance your experience and personalize the content and advertising you see.
Visit our Privacy Policy to learn more. By continuing to use the site, you agree to this use of cookies and data.
  • En España
  • Lista de países
  • Para 7 días
  • Temperatura del agua
  • El tiempo en el mapa
  • Informadores
  • user-avatar
    Iniciar sesión

    Tiempo cada hora Bedford

    Hoy, 21 Septiembre, Sábado

    Tiempo Temperatura Precipitaciones Viento Presión Humedad
    00:00 +13°C° 0 mm 4 mps 761 mmHg 74%
    01:00 +13°C° 0 mm 4 mps 760 mmHg 74%
    02:00 +13°C° 0 mm 4 mps 760 mmHg 75%
    03:00 +12°C° 0 mm 4 mps 759 mmHg 76%
    04:00 +12°C° 0 mm 4 mps 759 mmHg 75%
    05:00 +12°C° 0 mm 4 mps 758 mmHg 75%
    06:00 +12°C° 0 mm 4 mps 758 mmHg 75%
    07:00 +13°C° 0 mm 5 mps 758 mmHg 69%
    08:00 +15°C° 0 mm 5 mps 757 mmHg 62%
    09:00 +16°C° 0 mm 6 mps 757 mmHg 56%
    10:00 +19°C° 0 mm 6 mps 757 mmHg 53%
    11:00 +20°C° 0 mm 6 mps 756 mmHg 50%
    12:00 +22°C° 0 mm 5 mps 756 mmHg 46%
    13:00 +22°C° 0 mm 5 mps 755 mmHg 47%
    14:00 +23°C° 0 mm 5 mps 755 mmHg 47%
    15:00 +23°C° 0 mm 5 mps 754 mmHg 48%
    16:00 +22°C° 0 mm 5 mps 754 mmHg 53%
    17:00 +20°C° 0 mm 5 mps 753 mmHg 58%
    18:00 +19°C° 0 mm 4 mps 753 mmHg 64%
    19:00 +18°C° 0 mm 4 mps 753 mmHg 66%
    20:00 +18°C° 0 mm 4 mps 753 mmHg 68%
    21:00 +18°C° 0 mm 4 mps 752 mmHg 71%
    22:00 +18°C° 0 mm 4 mps 752 mmHg 73%
    23:00 +18°C° 0 mm 4 mps 752 mmHg 75%

    Mañana, 22 Septiembre, Domingo

    Tiempo Temperatura Precipitaciones Viento Presión Humedad
    00:00 +18°C° 0 mm 4 mps 751 mmHg 77%
    01:00 +18°C° 0.1 mm 4 mps 751 mmHg 77%
    02:00 +18°C° 0.1 mm 4 mps 750 mmHg 78%
    03:00 +18°C° 0.1 mm 4 mps 750 mmHg 79%
    04:00 +18°C° 0.2 mm 3 mps 749 mmHg 82%
    05:00 +17°C° 0.2 mm 3 mps 749 mmHg 84%
    06:00 +17°C° 0.2 mm 3 mps 749 mmHg 86%
    07:00 +18°C° 0 mm 4 mps 749 mmHg 82%
    08:00 +20°C° 0 mm 4 mps 749 mmHg 78%
    09:00 +21°C° 0 mm 5 mps 749 mmHg 73%
    10:00 +20°C° 0.7 mm 5 mps 749 mmHg 76%
    11:00 +17°C° 0.7 mm 6 mps 749 mmHg 79%
    12:00 +16°C° 0.7 mm 6 mps 749 mmHg 82%
    13:00 +16°C° 0.2 mm 6 mps 749 mmHg 79%
    14:00 +17°C° 0.2 mm 5 mps 749 mmHg 76%
    15:00 +17°C° 0.2 mm 5 mps 749 mmHg 74%
    16:00 +17°C° 0 mm 5 mps 749 mmHg 75%
    17:00 +17°C° 0 mm 4 mps 749 mmHg 76%
    18:00 +17°C° 0 mm 4 mps 749 mmHg 78%
    19:00 +15°C° 0 mm 4 mps 749 mmHg 80%
    20:00 +15°C° 0 mm 4 mps 750 mmHg 83%
    21:00 +14°C° 0 mm 4 mps 750 mmHg 86%
    22:00 +14°C° 0 mm 4 mps 750 mmHg 88%
    23:00 +13°C° 0 mm 5 mps 750 mmHg 90%

    Pasado mañana, 23 Septiembre, Lunes

    Tiempo Temperatura Precipitaciones Viento Presión Humedad
    00:00 +13°C° 0 mm 5 mps 751 mmHg 93%
    01:00 +13°C° 0 mm 5 mps 751 mmHg 90%
    02:00 +13°C° 0 mm 6 mps 751 mmHg 87%
    03:00 +11°C° 0 mm 6 mps 752 mmHg 85%
    04:00 +11°C° 0 mm 6 mps 752 mmHg 85%
    05:00 +12°C° 0 mm 5 mps 752 mmHg 86%
    06:00 +10°C° 0 mm 5 mps 752 mmHg 87%
    07:00 +12°C° 0 mm 5 mps 753 mmHg 82%
    08:00 +14°C° 0 mm 5 mps 753 mmHg 78%
    09:00 +15°C° 0 mm 5 mps 753 mmHg 73%
    10:00 +16°C° 0.1 mm 5 mps 753 mmHg 69%
    11:00 +17°C° 0.1 mm 6 mps 753 mmHg 65%
    12:00 +18°C° 0.1 mm 7 mps 753 mmHg 60%
    13:00 +19°C° 0 mm 6 mps 753 mmHg 61%
    14:00 +19°C° 0 mm 6 mps 752 mmHg 62%
    15:00 +19°C° 0 mm 6 mps 752 mmHg 63%
    16:00 +17°C° 1.1 mm 6 mps 752 mmHg 72%
    17:00 +15°C° 1.1 mm 6 mps 751 mmHg 80%
    18:00 +14°C° 1.1 mm 6 mps 751 mmHg 89%
    19:00 +15°C° 1 mm 7 mps 750 mmHg 89%
    20:00 +15°C° 1 mm 7 mps 750 mmHg 90%
    21:00 +15°C° 1 mm 7 mps 750 mmHg 90%
    22:00 +16°C° 1.3 mm 6 mps 750 mmHg 91%
    23:00 +16°C° 1.3 mm 5 mps 749 mmHg 92%

    24 Septiembre, Martes

    Tiempo Temperatura Precipitaciones Viento Presión Humedad
    00:00 +16°C° 1.3 mm 5 mps 749 mmHg 93%
    01:00 +16°C° 0.3 mm 5 mps 749 mmHg 93%
    02:00 +16°C° 0.3 mm 5 mps 749 mmHg 93%
    03:00 +16°C° 0.3 mm 5 mps 748 mmHg 93%
    04:00 +16°C° 0.1 mm 5 mps 748 mmHg 93%
    05:00 +16°C° 0.1 mm 5 mps 747 mmHg 93%
    06:00 +15°C° 0.1 mm 5 mps 747 mmHg 93%
    07:00 +16°C° 2.7 mm 5 mps 747 mmHg 93%
    08:00 +16°C° 2.7 mm 6 mps 746 mmHg 93%
    09:00 +16°C° 2.7 mm 6 mps 746 mmHg 92%
    10:00 +17°C° 0.8 mm 7 mps 746 mmHg 84%
    11:00 +18°C° 0.8 mm 7 mps 746 mmHg 77%
    12:00 +20°C° 0.8 mm 8 mps 746 mmHg 69%
    13:00 +20°C° 0 mm 8 mps 746 mmHg 68%
    14:00 +18°C° 0 mm 8 mps 746 mmHg 68%
    15:00 +18°C° 0 mm 8 mps 746 mmHg 67%
    16:00 +17°C° 0.1 mm 8 mps 745 mmHg 70%
    17:00 +16°C° 0.1 mm 8 mps 745 mmHg 74%
    18:00 +15°C° 0.1 mm 8 mps 745 mmHg 77%
    19:00 +15°C° 0.1 mm 7 mps 745 mmHg 79%
    20:00 +15°C° 0.1 mm 7 mps 745 mmHg 81%
    21:00 +15°C° 0.1 mm 7 mps 744 mmHg 83%
    22:00 +13°C° 0 mm 8 mps 744 mmHg 83%
    23:00 +13°C° 0 mm 8 mps 743 mmHg 82%

    25 Septiembre, Miércoles

    Tiempo Temperatura Precipitaciones Viento Presión Humedad
    00:00 +13°C° 0 mm 8 mps 743 mmHg 81%
    01:00 +13°C° 0.1 mm 8 mps 743 mmHg 82%
    02:00 +13°C° 0.1 mm 8 mps 743 mmHg 83%
    03:00 +13°C° 0.1 mm 8 mps 743 mmHg 84%
    04:00 +12°C° 0 mm 7 mps 743 mmHg 85%
    05:00 +12°C° 0 mm 7 mps 743 mmHg 87%
    06:00 +13°C° 0 mm 6 mps 744 mmHg 88%
    07:00 +14°C° 0.1 mm 6 mps 744 mmHg 85%
    08:00 +14°C° 0.1 mm 6 mps 745 mmHg 81%
    09:00 +15°C° 0.1 mm 6 mps 745 mmHg 77%
    10:00 +15°C° 0.6 mm 7 mps 745 mmHg 78%
    11:00 +15°C° 0.6 mm 7 mps 746 mmHg 78%
    12:00 +16°C° 0.6 mm 7 mps 746 mmHg 78%
    13:00 +16°C° 0.3 mm 7 mps 746 mmHg 75%
    14:00 +17°C° 0.3 mm 7 mps 746 mmHg 72%
    15:00 +17°C° 0.3 mm 7 mps 746 mmHg 69%
    16:00 +16°C° 0.1 mm 6 mps 746 mmHg 74%
    17:00 +15°C° 0.1 mm 5 mps 746 mmHg 79%
    18:00 +14°C° 0.1 mm 4 mps 746 mmHg 84%
    19:00 +14°C° 0.1 mm 3 mps 746 mmHg 87%
    20:00 +13°C° 0.1 mm 3 mps 746 mmHg 91%
    21:00 +14°C° 0.1 mm 2 mps 746 mmHg 94%
    22:00 +14°C° 0.2 mm 2 mps 745 mmHg 95%
    23:00 +14°C° 0.2 mm 3 mps 745 mmHg 95%

    26 Septiembre, Jueves

    Tiempo Temperatura Precipitaciones Viento Presión Humedad
    00:00 +14°C° 0.2 mm 3 mps 744 mmHg 96%
    01:00 +14°C° 0.8 mm 4 mps 744 mmHg 95%
    02:00 +15°C° 0.8 mm 5 mps 744 mmHg 95%
    03:00 +15°C° 0.8 mm 5 mps 743 mmHg 95%
    04:00 +15°C° 0.5 mm 6 mps 743 mmHg 93%
    05:00 +16°C° 0.5 mm 7 mps 743 mmHg 91%
    06:00 +16°C° 0.5 mm 7 mps 743 mmHg 89%
    07:00 +17°C° 0.1 mm 7 mps 743 mmHg 85%
    08:00 +17°C° 0.1 mm 7 mps 743 mmHg 81%
    09:00 +17°C° 0.1 mm 7 mps 743 mmHg 78%
    10:00 +18°C° 0.1 mm 8 mps 743 mmHg 74%
    11:00 +18°C° 0.1 mm 8 mps 744 mmHg 70%
    12:00 +19°C° 0.1 mm 9 mps 744 mmHg 66%
    13:00 +18°C° 0.2 mm 9 mps 744 mmHg 65%
    14:00 +18°C° 0.2 mm 9 mps 744 mmHg 63%
    15:00 +17°C° 0.2 mm 9 mps 744 mmHg 62%
    16:00 +16°C° 0.1 mm 8 mps 744 mmHg 67%
    17:00 +15°C° 0.1 mm 7 mps 744 mmHg 72%
    18:00 +14°C° 0.1 mm 6 mps 744 mmHg 76%
    19:00 +12°C° 0 mm 7 mps 745 mmHg 77%
    20:00 +12°C° 0 mm 7 mps 745 mmHg 78%
    21:00 +12°C° 0 mm 7 mps 745 mmHg 79%
    22:00 +12°C° 0 mm 7 mps 745 mmHg 80%
    23:00 +11°C° 0 mm 7 mps 745 mmHg 81%
    Mostrar más